Location: Goettingen
(51.5300°N, 9.9433°E)
Time: 20:50:46
(UTC+01:00)

ISS - Pass Details

Date: 21 January 2022
Orbit: 413 x 422 km, 51.6° (Epoch: 28 January)

Event Time Altitude Azimuth Distance (km) Brightness Sun altitude
Rises 17:25:43 0° 195° (SSW) 2,335 0.7 -5.7°
Reaches altitude 10° 17:28:46 10° 164° (SSE) 1,479 -0.9 -6.1°
Maximum altitude 17:30:12 12° 138° (SE) 1,349 -1.4 -6.3°
Drops below altitude 10° 17:31:38 10° 113° (ESE) 1,484 -1.4 -6.5°
Enters shadow 17:32:58 - 95° (E) 1,798 -1.1 -6.7°
